Date String (YYYY-MM-DD hh:mm:ss) UTC,Instrument flags,absolute air pressure of the measurement (hPa),sample flow rate (lpm),inlet stack bypass flow (lpm),air temperature of the measurement (°C),ambient temperature measured by the external sensor (°C),aerosol sample conditioner tube jacket temperature (°C),OPC LED temperature (°C),internal box temperature (°C),relative humidity of the measurement (%),span deviation,mass concentration of particles derived from Lorenz-Mie calculation of OPC scattering (μg/m³),mass concentration of particles derived from Lorenz-Mie calculation of OPC scattering (μg/m³),mass concentration of particles derived from Lorenz-Mie calculation of OPC scattering (μg/m³)
DateTimeUTC,F1_M11,P_M11,Q1_M11,Q2_M11,T1_M11,T2_M11,T3_M11,T4_M11,T5_M11,U1_M11,ZSPAN_M11,X0_M11,X2_M11,X1_M11
2024-04-22 17:00:00,SystemResetWarning,0824.7,4.99,000.00,026.1,025.3,000.0,034.5,027.9,014.6,0000.0,0006.45,0002.63,0001.87
2024-04-22 17:01:00,SystemResetWarning,0824.8,4.99,000.00,026.1,025.3,000.0,034.5,027.9,013.7,0000.0,0006.68,0002.65,0001.86
2024-04-22 17:02:00,SystemResetWarning,0824.7,5.01,000.00,026.1,025.3,000.0,034.5,027.9,014.3,0000.0,0007.02,0002.68,0001.85
2024-04-22 17:03:00,SystemResetWarning,0824.7,5.00,000.00,026.1,025.3,000.0,034.5,027.9,014.2,0000.0,0005.47,0002.67,0001.87
2024-04-22 17:04:00,SystemResetWarning,0824.7,4.99,000.00,026.1,025.3,000.0,034.5,027.9,014.0,0000.0,0005.45,0002.67,0001.87
2024-04-22 17:05:00,SystemResetWarning,0824.8,5.00,000.00,026.2,025.3,000.0,034.5,027.9,012.8,0000.0,0005.79,0002.69,0001.89
2024-04-22 17:06:00,SystemResetWarning,0824.7,5.00,000.00,026.2,025.4,000.0,034.5,027.9,013.4,0000.0,0005.85,0002.69,0001.90
2024-04-22 17:07:00,SystemResetWarning,0824.7,5.01,000.00,026.2,025.4,000.0,034.5,028.0,013.4,0000.0,0006.23,0002.73,0001.91
2024-04-22 17:08:00,SystemResetWarning,0824.7,5.01,000.00,026.2,025.4,000.0,034.6,028.0,013.7,0000.0,0006.22,0002.74,0001.92
2024-04-22 17:09:00,SystemResetWarning,0824.7,4.99,000.00,026.2,025.4,000.0,034.6,028.0,014.4,0000.0,0006.03,0002.68,0001.93
2024-04-22 17:10:00,SystemResetWarning,0824.7,4.99,000.00,026.2,025.4,000.0,034.6,028.0,015.0,0000.0,0005.81,0002.65,0001.92
2024-04-22 17:11:00,SystemResetWarning,0824.7,5.01,000.00,026.2,025.4,000.0,034.6,028.0,015.5,0000.0,0005.87,0002.68,0001.93
2024-04-22 17:12:00,SystemResetWarning,0824.8,5.01,000.00,026.2,025.4,000.0,034.6,028.0,015.0,0000.0,0006.43,0002.67,0001.95
2024-04-22 17:13:00,SystemResetWarning,0824.7,5.01,000.00,026.2,025.4,000.0,034.6,028.0,012.9,0000.0,0006.11,0002.68,0001.95
2024-04-22 17:14:00,SystemResetWarning,0824.7,5.00,000.00,026.2,025.4,000.0,034.6,028.0,013.5,0000.0,0005.73,0002.67,0001.95
2024-04-22 17:15:00,SystemResetWarning,0824.7,5.00,000.00,026.3,025.4,000.0,034.6,028.0,013.6,0000.0,0005.94,0002.65,0001.94
2024-04-22 17:16:00,SystemResetWarning,0824.7,4.99,000.00,026.3,025.5,000.0,034.6,028.0,013.6,0000.0,0006.05,0002.63,0001.93
2024-04-22 17:17:00,SystemResetWarning,0824.7,5.01,000.00,026.3,025.5,000.0,034.6,028.1,013.8,0000.0,0005.99,0002.63,0001.93
2024-04-22 17:18:00,SystemResetWarning,0824.7,5.01,000.00,026.3,025.5,000.0,034.7,028.1,013.0,0000.0,0005.73,0002.61,0001.91
2024-04-22 17:19:00,SystemResetWarning,0824.7,5.00,000.00,026.3,025.5,000.0,034.7,028.1,013.5,0000.0,0005.88,0002.56,0001.90
2024-04-22 17:20:00,SystemResetWarning,0824.7,5.00,000.00,026.3,025.5,000.0,034.7,028.1,013.6,0000.0,0006.51,0002.59,0001.89
2024-04-22 17:21:00,SystemResetWarning,0824.7,4.99,000.00,026.3,025.5,000.0,034.7,028.1,013.3,0000.0,0006.90,0002.60,0001.90
2024-04-22 17:22:00,SystemResetWarning,0824.7,5.00,000.00,026.3,025.5,000.0,034.7,028.1,013.9,0000.0,0007.84,0002.61,0001.91
2024-04-22 17:23:00,SystemResetWarning,0824.7,5.00,000.00,026.3,025.5,000.0,034.7,028.1,013.5,0000.0,0007.33,0002.62,0001.90
2024-04-22 17:24:00,SystemResetWarning,0824.7,5.00,000.00,026.4,025.5,000.0,034.7,028.1,013.6,0000.0,0007.97,0002.60,0001.90
2024-04-22 17:25:00,SystemResetWarning,0824.7,5.01,000.00,026.4,025.6,000.0,034.7,028.2,013.8,0000.0,0008.12,0002.63,0001.88
2024-04-22 17:26:00,SystemResetWarning,0824.6,5.00,000.00,026.4,025.6,000.0,034.7,028.2,013.6,0000.0,0008.11,0002.68,0001.89
2024-04-22 17:27:00,SystemResetWarning,0824.6,5.00,000.00,026.4,025.6,000.0,034.8,028.2,013.5,0000.0,0007.90,0002.69,0001.88
2024-04-22 17:28:00,SystemResetWarning,0824.5,5.00,000.00,026.4,025.6,000.0,034.8,028.2,013.5,0000.0,0007.99,0002.74,0001.88
2024-04-22 17:29:00,SystemResetWarning,0824.6,5.00,000.00,026.4,025.6,000.0,034.8,028.2,013.3,0000.0,0008.01,0002.77,0001.91
2024-04-22 17:30:00,SystemResetWarning,0824.5,5.00,000.00,026.4,025.6,000.0,034.8,028.2,013.3,0000.0,0008.01,0002.84,0001.93
2024-04-22 17:31:00,SystemResetWarning,0824.5,5.00,000.00,026.4,025.6,000.0,034.8,028.2,013.2,0000.0,0007.70,0002.85,0001.93
2024-04-22 17:32:00,SystemResetWarning,0824.6,4.99,000.00,026.5,025.6,000.0,034.8,028.2,012.7,0000.0,0007.74,0002.84,0001.92
2024-04-22 17:33:00,SystemResetWarning,0824.6,5.00,000.00,026.5,025.7,000.0,034.8,028.3,012.5,0000.0,0006.99,0002.82,0001.89
2024-04-22 17:34:00,SystemResetWarning,0824.6,5.01,000.00,026.5,025.7,000.0,034.8,028.3,013.6,0000.0,0007.22,0002.83,0001.90
2024-04-22 17:35:00,SystemResetWarning,0824.6,5.01,000.00,026.5,025.7,000.0,034.8,028.3,013.2,0000.0,0006.38,0002.87,0001.90
2024-04-22 17:36:00,SystemResetWarning,0824.6,5.00,000.00,026.5,025.7,000.0,034.9,028.3,013.3,0000.0,0006.14,0002.89,0001.92
2024-04-22 17:37:00,SystemResetWarning,0824.7,4.99,000.00,026.5,025.7,000.0,034.9,028.3,015.4,0000.0,0006.05,0002.85,0001.92
2024-04-22 17:38:00,SystemResetWarning,0824.7,4.99,000.00,026.6,025.8,000.0,034.9,028.3,020.4,0000.0,0006.57,0002.92,0001.98
2024-04-22 17:39:00,SystemResetWarning,0824.7,5.00,000.00,026.6,025.8,000.0,034.9,028.4,020.6,0000.0,0006.75,0003.08,0002.14
2024-04-22 17:40:00,SystemResetWarning,0824.7,5.00,000.00,026.6,025.8,000.0,034.9,028.4,017.2,0000.0,0007.09,0003.18,0002.27
2024-04-22 17:41:00,SystemResetWarning,0824.6,5.00,000.00,026.6,025.8,000.0,034.9,028.4,012.8,0000.0,0007.38,0003.20,0002.32
2024-04-22 17:42:00,SystemResetWarning,0824.6,5.01,000.00,026.6,025.8,000.0,034.9,028.4,012.5,0000.0,0007.42,0003.21,0002.33
2024-04-22 17:43:00,SystemResetWarning,0824.6,5.00,000.00,026.6,025.8,000.0,035.0,028.4,013.3,0000.0,0007.28,0003.19,0002.33
2024-04-22 17:44:00,SystemResetWarning,0824.5,5.01,000.00,026.6,025.9,000.0,035.0,028.4,012.7,0000.0,0007.01,0003.20,0002.33
2024-04-22 17:45:00,SystemResetWarning,0824.6,4.99,000.00,026.7,025.9,000.0,035.0,028.4,012.8,0000.0,0006.86,0003.22,0002.33
2024-04-22 17:46:00,SystemResetWarning,0824.6,4.99,000.00,026.7,025.9,000.0,035.0,028.5,012.8,0000.0,0006.83,0003.21,0002.33
2024-04-22 17:47:00,SystemResetWarning,0824.6,5.00,000.00,026.7,025.9,000.0,035.0,028.5,013.0,0000.0,0006.65,0003.19,0002.31
2024-04-22 17:48:00,SystemResetWarning,0824.5,5.00,000.00,026.7,025.9,000.0,035.0,028.5,013.6,0000.0,0007.07,0003.21,0002.29
2024-04-22 17:49:00,SystemResetWarning,0824.4,4.99,000.00,026.7,025.5,000.0,035.1,028.2,019.3,0000.0,0008.14,0003.21,0002.29
2024-04-22 17:50:00,SystemResetWarning,0824.2,5.01,000.00,026.4,023.8,000.0,035.1,027.2,020.8,0000.0,0009.01,0003.25,0002.38
2024-04-22 17:51:00,SystemResetWarning,0824.3,5.01,000.00,026.0,023.1,000.0,035.1,026.7,021.8,0000.0,0009.37,0003.32,0002.48
2024-04-22 17:52:00,SystemResetWarning,0824.4,5.00,000.00,025.9,023.4,000.0,034.9,026.8,021.9,0000.0,0009.34,0003.44,0002.65
2024-04-22 17:53:00,SystemResetWarning,0824.4,4.98,000.00,025.9,023.7,000.0,034.8,027.1,022.5,0000.0,0009.65,0003.62,0002.96
2024-04-22 17:54:00,SystemResetWarning,0824.3,5.02,000.00,025.9,024.0,000.0,034.7,027.3,021.8,0000.0,0010.40,0003.86,0003.21
2024-04-22 17:55:00,SystemResetWarning,0824.4,5.01,000.00,025.9,024.2,000.0,034.6,027.5,021.8,0000.0,0010.89,0004.02,0003.37
2024-04-22 17:56:00,SystemResetWarning,0824.4,4.98,000.00,025.9,024.4,000.0,034.6,027.6,021.4,0000.0,0011.69,0004.19,0003.52
2024-04-22 17:57:00,SystemResetWarning,0824.4,5.01,000.00,026.0,024.6,000.0,034.6,027.7,019.6,0000.0,0012.18,0004.30,0003.65
2024-04-22 17:58:00,SystemResetWarning,0824.4,5.01,000.00,026.0,024.8,000.0,034.6,027.8,019.8,0000.0,0013.06,0004.44,0003.75
2024-04-22 17:59:00,SystemResetWarning,0824.4,5.00,000.00,026.0,025.0,000.0,034.5,027.8,022.3,0000.0,0013.34,0004.53,0003.86
